Location: Newark
(50.4348°N, 30.5552°E)
Time: 17:00:51
(UTC+00:00)

Vanguard 3 - Pass Details

Date: 18 January 2020
Orbit: 508 x 3263 km, 33.3° (Epoch: 21 February)

Event Time Altitude Azimuth Distance (km) Brightness Sun altitude
Rises 20:22:08 0° 256° (WSW) 6,575 12.0 -53.5°
Reaches altitude 10° 20:27:43 10° 248° (WSW) 5,142 11.3 -54.1°
Enters shadow 20:31:21 17° 239° (WSW) 4,221 10.7 -54.5°
